Tracking 35051 objects as of 17-Aug-2026
HD Live streaming from Space Station
objects crossing your sky now

STARLINK-38091

Track STARLINK-38091 now!
10-day predictions
STARLINK-38091 is classified as:


NORAD ID: 69997
Int'l Code: 2026-159Y
Launch date: July 11, 2026
Source: United States (US)
Launch site: AIR FORCE WESTERN TEST RANGE (AFWTR)
Your satellite tracking list
Your tracking list is empty




NASA's NSSDC Master Catalog

Two Line Element Set (TLE):
1 69997U 26159Y   26229.53217338  .00156478  00000-0  10265-2 0  9993
2 69997  97.2870  70.0391 0001087  70.3116 289.8266 15.75288839  7126
Source of the keplerian elements: AFSPC